GW5381 Weather Reports


Display with metric or nautical units.
time (UTC)temp
F
wind
direction
speed
MPH
gust
MPH
rain 1hr
in
rain 24hr
in
rain mn
in
humidity
%
barometer
mb
20260507124432 48 109 0.0 2.0 0.00 0.00 0.00 65 1016.4
20260507123930 47 111 0.0 1.0 0.00 0.00 0.00 68 1016.6
20260507123427 47 122 1.0 2.0 0.00 0.00 0.00 66 1016.7
20260507122923 47 107 1.0 3.0 0.00 0.00 0.00 68 1016.5
20260507122419 46 103 2.0 3.0 0.00 0.00 0.00 69 1016.7
20260507121915 46 118 0.0 1.0 0.00 0.00 0.00 69 1016.6
20260507121410 46 114 0.0 1.0 0.00 0.00 0.00 70 1016.6
20260507120908 46 101 1.0 2.0 0.00 0.00 0.00 69 1016.5
20260507120404 46 108 1.0 2.0 0.00 0.00 0.00 70 1016.4
20260507115900 45 110 0.0 2.0 0.00 0.00 0.00 71 1016.6
20260507115356 45 106 1.0 2.0 0.00 0.00 0.00 72 1016.6
20260507114852 45 108 1.0 2.0 0.00 0.00 0.00 73 1016.6
20260507114349 44 111 0.0 2.0 0.00 0.00 0.00 73 1016.5
20260507113846 44 108 0.0 2.0 0.00 0.00 0.00 75 1016.5
20260507113343 44 113 0.0 2.0 0.00 0.00 0.00 77 1016.6
20260507112841 43 111 0.0 1.0 0.00 0.00 0.00 79 1016.5
20260507112338 43 104 0.0 1.0 0.00 0.00 0.00 80 1016.8
20260507111836 42 124 0.0 1.0 0.00 0.00 0.00 82 1016.4
20260507111332 42 122 0.0 0.0 0.00 0.00 0.00 84 1016.5
20260507110828 42 122 0.0 0.0 0.00 0.00 0.00 84 1016.2
20260507110324 42 122 0.0 1.0 0.00 0.00 0.00 84 1016.2
20260507105822 42 121 0.0 0.0 0.00 0.00 0.00 84 1016.0
20260507105318 42 112 0.0 1.0 0.00 0.00 0.00 86 1015.9
20260507104815 42 123 0.0 1.0 0.00 0.00 0.00 89 1016.0
20260507104311 41 96 0.0 1.0 0.00 0.00 0.00 91 1015.9
20260507103807 41 116 0.0 0.0 0.00 0.00 0.00 91 1016.0
20260507103304 41 116 0.0 0.0 0.00 0.00 0.00 92 1016.0
20260507102801 41 116 0.0 0.0 0.00 0.00 0.00 92 1016.0
20260507102257 41 116 0.0 0.0 0.00 0.00 0.00 92 1016.0
20260507101754 41 116 0.0 0.0 0.00 0.00 0.00 91 1015.9
20260507101253 41 116 0.0 0.0 0.00 0.00 0.00 91 1015.9
20260507100751 41 116 0.0 0.0 0.00 0.00 0.00 91 1016.0
20260507100249 42 116 0.0 0.0 0.00 0.00 0.00 91 1015.8
20260507095747 42 116 0.0 0.0 0.00 0.00 0.00 91 1016.0
20260507095243 42 116 0.0 0.0 0.00 0.00 0.00 91 1015.9
20260507094740 42 116 0.0 0.0 0.00 0.00 0.00 92 1015.9
20260507094237 42 116 0.0 0.0 0.00 0.00 0.00 92 1015.9
20260507093734 42 116 0.0 0.0 0.00 0.00 0.00 92 1015.9
20260507093232 42 116 0.0 0.0 0.00 0.00 0.00 92 1015.9
20260507092730 42 116 0.0 0.0 0.00 0.00 0.00 92 1015.8
20260507092225 42 116 0.0 0.0 0.00 0.00 0.00 93 1015.7
20260507091722 42 116 0.0 0.0 0.00 0.00 0.00 93 1015.6
20260507091219 42 116 0.0 0.0 0.00 0.00 0.00 93 1015.6
20260507090714 42 116 0.0 0.0 0.00 0.00 0.00 93 1015.7
20260507090211 42 116 0.0 0.0 0.00 0.00 0.00 93 1015.5
20260507085708 42 116 0.0 0.0 0.00 0.00 0.00 93 1015.7
20260507085205 42 116 0.0 0.0 0.00 0.00 0.00 93 1015.5
20260507084702 42 116 0.0 0.0 0.00 0.00 0.00 92 1015.6
20260507084158 42 116 0.0 0.0 0.00 0.00 0.00 92 1015.6
20260507083655 42 116 0.0 0.0 0.00 0.00 0.00 92 1015.4
20260507083152 42 116 0.0 0.0 0.00 0.00 0.00 92 1015.5
20260507082648 42 116 0.0 0.0 0.00 0.00 0.00 92 1015.6
20260507082144 42 116 0.0 0.0 0.00 0.00 0.00 92 1015.3
20260507081641 42 116 0.0 0.0 0.00 0.00 0.00 92 1015.4
20260507081137 43 116 0.0 0.0 0.00 0.00 0.00 92 1015.3
20260507080634 43 116 0.0 0.0 0.00 0.00 0.00 91 1015.3
20260507080131 43 116 0.0 0.0 0.00 0.00 0.00 91 1015.3
20260507075630 43 116 0.0 0.0 0.00 0.00 0.00 91 1015.5
20260507075127 43 116 0.0 0.0 0.00 0.00 0.00 91 1015.4
20260507074624 43 116 0.0 0.0 0.00 0.00 0.00 91 1015.2
20260507074122 43 116 0.0 0.0 0.00 0.00 0.00 90 1015.2
20260507073618 43 116 0.0 0.0 0.00 0.00 0.00 90 1015.4
20260507073114 43 116 0.0 0.0 0.00 0.00 0.00 90 1015.4
20260507072613 44 116 0.0 0.0 0.00 0.00 0.00 90 1015.4
20260507072109 44 116 0.0 0.0 0.00 0.00 0.00 89 1015.3
20260507071607 44 116 0.0 0.0 0.00 0.00 0.00 89 1015.5
20260507071103 44 116 0.0 0.0 0.00 0.00 0.00 89 1015.4
20260507070600 44 116 0.0 0.0 0.00 0.00 0.00 89 1015.5
20260507070057 44 116 0.0 0.0 0.00 0.00 0.00 88 1015.3
20260507065553 44 116 0.0 0.0 0.00 0.00 0.00 88 1015.3
20260507065051 44 116 0.0 0.0 0.00 0.00 0.00 87 1015.5
20260507064548 44 116 0.0 0.0 0.00 0.00 0.00 87 1015.3
20260507064047 44 116 0.0 0.0 0.00 0.00 0.00 87 1015.5
20260507063543 45 116 0.0 0.0 0.00 0.00 0.00 87 1015.4
20260507063041 44 116 0.0 0.0 0.00 0.00 0.00 87 1015.6
20260507062537 44 116 0.0 0.0 0.00 0.00 0.00 87 1015.6
20260507062035 44 116 0.0 0.0 0.00 0.00 0.00 86 1015.5
20260507061533 45 116 0.0 0.0 0.00 0.00 0.00 85 1015.4
20260507061031 45 116 0.0 0.0 0.00 0.00 0.00 85 1015.5
20260507060528 45 116 0.0 0.0 0.00 0.00 0.00 84 1015.4
20260507060025 45 116 0.0 0.0 0.00 0.00 0.00 83 1015.4
20260507055525 45 116 0.0 0.0 0.00 0.00 0.00 84 1015.5
20260507055022 46 116 0.0 0.0 0.00 0.00 0.00 84 1015.5
20260507054518 46 116 0.0 0.0 0.00 0.00 0.00 83 1015.5
20260507054015 46 116 0.0 0.0 0.00 0.00 0.00 83 1015.6
20260507053513 46 116 0.0 0.0 0.00 0.00 0.00 83 1015.6
20260507053012 45 116 0.0 0.0 0.00 0.00 0.00 83 1015.6
20260507052509 46 116 0.0 0.0 0.00 0.00 0.00 83 1015.6
20260507052005 46 116 0.0 0.0 0.00 0.00 0.00 82 1015.6
20260507051503 46 116 0.0 0.0 0.00 0.00 0.00 82 1015.3
20260507051000 46 116 0.0 0.0 0.00 0.00 0.00 81 1015.4
20260507050456 46 116 0.0 0.0 0.00 0.00 0.00 81 1015.4
20260507045953 47 116 0.0 0.0 0.00 0.00 0.00 80 1015.4
20260507045449 47 116 0.0 0.0 0.00 0.00 0.00 78 1015.7
20260507044947 47 116 0.0 0.0 0.00 0.00 0.00 78 1015.7
20260507044443 48 116 0.0 0.0 0.00 0.00 0.00 78 1015.7
20260507043940 47 116 0.0 0.0 0.00 0.00 0.00 78 1015.7
20260507043436 47 116 0.0 0.0 0.00 0.00 0.00 78 1015.7
20260507042932 47 116 0.0 0.0 0.00 0.00 0.00 79 1015.8
20260507042429 47 116 0.0 0.0 0.00 0.00 0.00 78 1015.5
20260507041925 47 116 0.0 0.0 0.00 0.00 0.00 79 1015.6
20260507041422 47 116 0.0 0.0 0.00 0.00 0.00 81 1015.5
20260507040919 47 116 0.0 0.0 0.00 0.00 0.00 81 1015.7
20260507040415 47 116 0.0 0.0 0.00 0.00 0.00 80 1015.6
20260507035911 47 116 0.0 0.0 0.00 0.65 0.65 79 1015.6
20260507035407 47 116 0.0 0.0 0.00 0.65 0.65 80 1015.6
20260507034904 47 115 0.0 0.0 0.00 0.65 0.65 78 1015.7
20260507034401 47 115 0.0 0.0 0.00 0.65 0.65 77 1015.4
20260507033859 48 115 0.0 0.0 0.00 0.65 0.65 77 1015.7
20260507033357 48 115 0.0 0.0 0.00 0.65 0.65 77 1015.5
20260507032854 48 115 0.0 0.0 0.00 0.65 0.65 76 1015.5
20260507032350 48 115 0.0 0.0 0.00 0.65 0.65 75 1015.7
20260507031846 48 116 0.0 0.0 0.00 0.65 0.65 73 1015.6
20260507031343 48 116 0.0 0.0 0.00 0.65 0.65 74 1015.8
20260507030840 48 116 0.0 0.0 0.00 0.65 0.65 76 1015.5
20260507030338 48 115 0.0 0.0 0.00 0.65 0.65 78 1015.6
20260507025834 48 115 0.0 0.0 0.00 0.65 0.65 75 1015.5
20260507025332 48 115 0.0 0.0 0.00 0.65 0.65 74 1015.7
20260507024829 49 115 0.0 0.0 0.00 0.65 0.65 74 1015.7
20260507024326 49 115 0.0 0.0 0.00 0.65 0.65 72 1015.8
20260507023822 50 115 0.0 0.0 0.00 0.65 0.65 73 1015.7
20260507023319 50 115 0.0 0.0 0.00 0.65 0.65 66 1015.5
20260507022816 50 115 0.0 0.0 0.00 0.65 0.65 66 1015.5
20260507022313 50 115 0.0 0.0 0.00 0.65 0.65 69 1015.4
20260507021809 50 115 0.0 0.0 0.00 0.65 0.65 69 1015.4
20260507021304 50 115 0.0 0.0 0.00 0.65 0.65 70 1015.4
20260507020803 50 115 0.0 0.0 0.00 0.65 0.65 71 1015.5
20260507020259 51 115 0.0 0.0 0.00 0.65 0.65 71 1015.5
20260507015756 51 115 0.0 0.0 0.00 0.65 0.65 69 1015.4
20260507015254 51 115 0.0 0.0 0.00 0.65 0.65 69 1015.3
20260507014751 51 115 0.0 0.0 0.00 0.65 0.65 70 1015.3
20260507014247 52 115 0.0 0.0 0.00 0.65 0.65 69 1015.4
20260507013743 52 115 0.0 0.0 0.00 0.65 0.65 69 1015.2
20260507013241 52 115 0.0 0.0 0.00 0.65 0.65 67 1015.2
20260507012738 52 115 0.0 0.0 0.00 0.65 0.65 65 1015.2
20260507012233 53 115 0.0 0.0 0.00 0.65 0.65 66 1014.8
20260507011732 53 114 0.0 0.0 0.00 0.65 0.65 63 1014.8
20260507011228 53 114 0.0 0.0 0.00 0.65 0.65 63 1014.9
20260507010727 54 113 0.0 0.0 0.00 0.65 0.65 61 1014.9
20260507010223 54 116 0.0 1.0 0.00 0.65 0.65 61 1014.9
20260507005721 54 118 0.0 0.0 0.00 0.65 0.65 60 1015.0
20260507005217 54 118 0.0 0.0 0.00 0.65 0.65 60 1014.9
20260507004714 55 118 0.0 0.0 0.00 0.65 0.65 59 1014.7
20260507004212 55 129 1.0 2.0 0.00 0.65 0.65 58 1014.9
20260507003708 55 122 0.0 1.0 0.00 0.65 0.65 56 1014.7
20260507003203 55 107 1.0 2.0 0.00 0.65 0.65 56 1014.9
20260507002659 56 131 0.0 1.0 0.00 0.65 0.65 55 1014.5
20260507002155 56 123 0.0 2.0 0.00 0.65 0.65 54 1014.7
20260507001652 56 113 2.0 3.0 0.00 0.65 0.65 55 1014.6
20260507001150 57 132 1.0 2.0 0.00 0.65 0.65 54 1014.6
20260507000646 57 109 0.0 1.0 0.00 0.65 0.65 54 1014.5
20260507000141 57 135 2.0 2.0 0.00 0.65 0.65 54 1014.6
20260506235639 57 108 1.0 2.0 0.00 0.65 0.65 54 1014.4
20260506235139 58 110 0.0 2.0 0.00 0.65 0.65 52 1014.2
20260506234637 59 119 1.0 1.0 0.00 0.65 0.65 51 1014.1
20260506234133 58 119 0.0 2.0 0.00 0.65 0.65 52 1014.2
20260506233630 59 129 0.0 6.0 0.00 0.65 0.65 51 1014.1
20260506233128 59 108 1.0 9.0 0.00 0.65 0.65 50 1014.1
20260506232623 59 110 2.0 6.0 0.00 0.65 0.65 50 1014.2
20260506232119 60 101 4.0 6.0 0.00 0.65 0.65 51 1014.1
20260506231616 59 84 2.0 4.0 0.00 0.65 0.65 50 1014.1
20260506231115 59 91 2.0 4.0 0.00 0.65 0.65 49 1013.5
20260506230611 59 105 1.0 3.0 0.00 0.65 0.65 50 1013.7
20260506230109 59 109 1.0 2.0 0.00 0.65 0.65 51 1013.9
20260506225605 59 123 0.0 3.0 0.00 0.65 0.65 52 1013.9
20260506225101 59 106 1.0 3.0 0.00 0.65 0.65 50 1013.8
20260506224558 59 106 2.0 4.0 0.00 0.65 0.65 51 1014.0
20260506224055 59 105 2.0 3.0 0.00 0.65 0.65 50 1013.8
20260506223551 59 104 2.0 3.0 0.00 0.65 0.65 51 1013.9
20260506223047 59 108 2.0 4.0 0.00 0.65 0.65 49 1014.0
20260506222544 59 119 2.0 3.0 0.00 0.65 0.65 48 1014.2
20260506222040 59 125 2.0 3.0 0.00 0.65 0.65 47 1014.1
20260506221538 59 103 1.0 6.0 0.00 0.65 0.65 50 1014.3
20260506221036 59 106 1.0 4.0 0.00 0.65 0.65 47 1014.1
20260506220532 59 105 1.0 3.0 0.00 0.65 0.65 47 1014.1
20260506220027 59 111 1.0 2.0 0.00 0.65 0.65 49 1014.4
20260506215525 59 110 0.0 2.0 0.00 0.65 0.65 50 1014.3
20260506215020 59 111 0.0 3.0 0.00 0.65 0.65 48 1014.5
20260506214517 60 147 2.0 7.0 0.00 0.65 0.65 49 1014.3
20260506214015 61 123 0.0 3.0 0.00 0.65 0.65 48 1014.3
20260506213513 61 123 2.0 3.0 0.00 0.65 0.65 49 1014.3
20260506213009 61 90 2.0 3.0 0.00 0.65 0.65 48 1014.1
20260506212506 62 116 4.0 6.0 0.00 0.65 0.65 45 1014.0
20260506212001 61 104 2.0 3.0 0.00 0.65 0.65 47 1014.0
20260506211457 60 113 1.0 4.0 0.00 0.65 0.65 49 1014.1
20260506210954 60 93 3.0 7.0 0.00 0.65 0.65 47 1013.9
20260506210450 60 112 2.0 3.0 0.00 0.65 0.65 48 1013.9
20260506205948 60 113 2.0 7.0 0.00 0.65 0.65 49 1013.5
20260506205444 60 121 2.0 6.0 0.00 0.65 0.65 49 1013.7
20260506204940 60 124 2.0 6.0 0.00 0.65 0.65 51 1013.9
20260506204438 60 101 2.0 6.0 0.00 0.65 0.65 48 1013.4
20260506203935 60 136 4.0 6.0 0.00 0.65 0.65 49 1013.8
20260506203432 60 126 3.0 4.0 0.00 0.65 0.65 50 1013.8
20260506202929 60 123 2.0 7.0 0.00 0.65 0.65 51 1013.9
20260506202426 60 104 2.0 3.0 0.00 0.65 0.65 51 1013.7
20260506201922 60 109 2.0 3.0 0.00 0.65 0.65 50 1013.8
20260506201420 60 123 1.0 3.0 0.00 0.65 0.65 51 1013.8
20260506200916 61 102 3.0 3.0 0.00 0.65 0.65 50 1013.8
20260506200413 61 120 1.0 4.0 0.00 0.65 0.65 49 1013.8
20260506195909 61 126 1.0 2.0 0.00 0.65 0.65 49 1013.5
20260506195407 62 148 3.0 4.0 0.00 0.65 0.65 46 1013.8
20260506194903 62 92 2.0 3.0 0.00 0.65 0.65 44 1013.5
20260506194400 62 112 2.0 2.0 0.00 0.65 0.65 45 1013.5
20260506193857 62 114 0.0 1.0 0.00 0.65 0.65 44 1013.8
20260506193354 63 111 0.0 3.0 0.00 0.65 0.65 43 1013.8
20260506192850 64 106 1.0 2.0 0.00 0.65 0.65 45 1013.8
20260506192347 65 108 2.0 8.0 0.00 0.65 0.65 42 1013.7
20260506191844 64 129 2.0 6.0 0.00 0.65 0.65 41 1013.4
20260506191340 63 124 0.0 4.0 0.00 0.65 0.65 41 1013.4
20260506190838 62 112 0.0 4.0 0.00 0.65 0.65 44 1013.5
20260506190334 62 118 0.0 3.0 0.00 0.65 0.65 45 1013.3
20260506185831 64 103 2.0 4.0 0.00 0.65 0.65 45 1013.5
20260506185328 63 138 2.0 3.0 0.00 0.65 0.65 45 1013.4
20260506184825 63 194 1.0 6.0 0.00 0.65 0.65 45 1013.4
20260506184322 62 104 2.0 6.0 0.00 0.65 0.65 50 1013.4
20260506183820 63 103 4.0 7.0 0.00 0.65 0.65 45 1013.5
20260506183314 63 136 2.0 4.0 0.00 0.65 0.65 49 1013.3
20260506182812 63 104 2.0 4.0 0.00 0.65 0.65 52 1013.3
20260506182309 62 107 0.0 4.0 0.00 0.65 0.65 49 1013.4
20260506181807 62 115 2.0 3.0 0.00 0.65 0.65 48 1013.4
20260506181304 61 130 3.0 7.0 0.00 0.65 0.65 48 1013.4
20260506180802 61 90 4.0 10.0 0.00 0.65 0.65 48 1013.4
20260506180257 60 108 2.0 3.0 0.00 0.65 0.65 51 1013.5
20260506175754 61 65 5.0 11.0 0.00 0.65 0.65 49 1013.5
20260506175251 60 124 4.0 8.0 0.00 0.65 0.65 50 1013.9
20260506174748 61 108 4.0 9.0 0.00 0.65 0.65 51 1013.7
20260506174245 62 112 1.0 8.0 0.00 0.65 0.65 49 1013.8
20260506173743 62 123 0.0 3.0 0.00 0.65 0.65 51 1014.0
20260506173239 61 124 2.0 4.0 0.00 0.65 0.65 49 1013.8
20260506172736 60 123 2.0 3.0 0.00 0.65 0.65 50 1014.0
20260506172233 60 92 3.0 4.0 0.00 0.65 0.65 52 1013.9
20260506171731 60 117 4.0 6.0 0.00 0.65 0.65 51 1013.9
20260506171228 60 105 1.0 3.0 0.00 0.65 0.65 52 1014.2
20260506170725 59 114 1.0 7.0 0.00 0.65 0.65 51 1014.1
20260506170221 59 87 2.0 4.0 0.00 0.65 0.65 52 1014.2
20260506165720 59 155 1.0 3.0 0.00 0.65 0.65 55 1014.2
20260506165217 58 95 2.0 4.0 0.00 0.65 0.65 55 1014.3
20260506164714 58 179 3.0 7.0 0.00 0.65 0.65 56 1014.3
20260506164211 57 76 2.0 3.0 0.00 0.65 0.65 62 1014.4
20260506163707 57 114 3.0 4.0 0.00 0.65 0.65 55 1014.2
20260506163202 57 126 2.0 6.0 0.00 0.65 0.65 56 1014.2
20260506162659 56 106 2.0 4.0 0.00 0.65 0.65 60 1014.3
20260506162156 56 115 2.0 4.0 0.00 0.65 0.65 58 1014.2
20260506161653 56 150 2.0 4.0 0.00 0.65 0.65 61 1014.1
20260506161150 57 86 4.0 6.0 0.00 0.65 0.65 59 1014.1
20260506160648 56 136 0.0 2.0 0.00 0.65 0.65 60 1014.1
20260506160145 56 132 2.0 3.0 0.00 0.65 0.65 63 1014.1
20260506155643 56 95 2.0 3.0 0.00 0.65 0.65 61 1014.1
20260506155140 55 122 1.0 7.0 0.00 0.65 0.65 63 1014.1
20260506153242 55 112 2.0 3.0 0.00 0.65 0.65 64 1013.7
20260506152739 54 110 1.0 3.0 0.00 0.65 0.65 66 1014.1
20260506152236 54 133 4.0 7.0 0.00 0.65 0.65 64 1014.2
20260506151735 54 115 4.0 7.0 0.00 0.65 0.65 66 1014.1
20260506151231 54 93 4.0 4.0 0.00 0.65 0.65 68 1013.8
20260506150727 53 95 2.0 4.0 0.00 0.65 0.65 70 1013.4
20260506150225 53 108 1.0 6.0 0.00 0.65 0.65 69 1013.4
20260506145722 53 134 1.0 6.0 0.00 0.65 0.65 70 1013.9
20260506145218 53 105 4.0 7.0 0.00 0.65 0.65 69 1013.7
20260506144716 52 164 1.0 3.0 0.00 0.65 0.65 73 1013.4
20260506144213 52 91 2.0 3.0 0.00 0.65 0.65 73 1013.1
20260506143710 51 98 3.0 3.0 0.00 0.65 0.65 74 1013.1
20260506143208 51 100 4.0 7.0 0.00 0.65 0.65 74 1013.1
20260506142706 51 98 2.0 3.0 0.00 0.65 0.65 76 1013.0
20260506142204 51 123 1.0 4.0 0.00 0.65 0.65 77 1013.0
20260506141702 51 113 1.0 6.0 0.00 0.65 0.65 76 1013.0
20260506141159 51 98 1.0 4.0 0.00 0.65 0.65 76 1012.9
20260506140657 50 93 3.0 3.0 0.00 0.65 0.65 79 1012.9
20260506140154 50 81 4.0 7.0 0.00 0.65 0.65 77 1012.6
20260506135650 50 114 1.0 3.0 0.00 0.65 0.65 81 1012.5
20260506135147 50 94 2.0 4.0 0.00 0.65 0.65 79 1012.6
20260506134643 49 125 2.0 3.0 0.00 0.65 0.65 81 1012.8
20260506134139 50 94 3.0 4.0 0.00 0.65 0.65 82 1012.9
20260506133637 49 113 1.0 2.0 0.00 0.65 0.65 82 1012.8
20260506133134 49 112 2.0 3.0 0.00 0.65 0.65 83 1012.7
20260506132631 49 116 1.0 4.0 0.00 0.65 0.65 82 1012.9
20260506132128 48 125 1.0 3.0 0.00 0.65 0.65 84 1012.7
20260506131625 48 106 1.0 4.0 0.00 0.65 0.65 84 1012.4
20260506131121 48 104 1.0 2.0 0.00 0.65 0.65 85 1012.2
20260506130618 48 108 4.0 6.0 0.00 0.65 0.65 85 1012.0
20260506130116 48 118 0.0 1.0 0.00 0.65 0.65 85 1012.1
20260506125614 47 109 0.0 4.0 0.00 0.65 0.65 86 1012.2
20260506125111 47 130 0.0 4.0 0.00 0.65 0.65 86 1012.2